Flag for U.S.A. Weather past 2 weeks in Augusta, Maine, U.S.A.

Now
15 °F

Clear.


Feels Like: 2 °F
Forecast: -1 / 20 °F
Wind: 10 mph from Northwest

Location: Augusta State Airport

Current Time: Mar 5, 2015 at 7:34:23 PM

Latest Report: Mar 5, 2015 at 6:53 PM


Visibility: 10 mi

Pressure: 30.18 "Hg

Humidity: 36%

Dew point: -7 °F

Location of AugustaLocation

Historic Weather in Augusta — Graph

°F

Augusta temperature yesterday

Maximum temperature yesterday: 45 °F (at 2:53 PM)
Minimum temperature yesterday: 28 °F (at 1:01 AM)
Average temperature yesterday: 35 °F

Past Weeks' High & Low Weather Summary

 TemperatureHumidityPressure
High45 °F (Mar 4, 2:53 PM)96% (Feb 21, 9:53 PM)30.69 "Hg (Feb 21, 9:53 PM)
Low-9 °F (Feb 24, 12:53 AM)20% (Mar 3, 2:53 PM)29.44 "Hg (Feb 19, 8:02 PM)
Average17 °F58%30.07 "Hg
* Reported Feb 18 5:53 PM — Mar 5 5:53 PM, Augusta, Weather by CustomWeather, © 2015

Note: Actual official high and low records may vary slightly from our data, if they occured in-between our weather recording intervals... More about our weather records

Advertising

Augusta weather history for previous 24 hours

 ConditionsComfort  
Time TempWeatherWind HumidityBarometerVisibility
5:53 PM
Thu, Mar 5
15 °FClear.9 mph36%30.14 "Hg10 mi
4:53 PM16 °FSunny.13 mph35%30.12 "Hg10 mi
3:53 PM17 °FSunny.9 mph35%30.13 "Hg10 mi
2:53 PM18 °FSunny.14 mph37%30.11 "Hg10 mi
1:53 PM19 °FSunny.13 mph39%30.08 "Hg10 mi
12:53 PM20 °FSunny.16 mph36%30.06 "Hg10 mi
11:53 AM20 °FPassing clouds.14 mph38%30.07 "Hg10 mi
10:53 AM21 °FSunny.15 mph41%30.07 "Hg10 mi
9:53 AM21 °FSunny.20 mph43%30.05 "Hg10 mi
8:53 AM22 °FScattered clouds.18 mph50%30.04 "Hg10 mi
7:53 AM24 °FSunny.18 mph50%29.98 "Hg10 mi
6:53 AM26 °FSunny.12 mph38%29.95 "Hg10 mi
5:53 AM27 °FClear.17 mph45%29.90 "Hg10 mi
4:53 AM30 °FClear.8 mph43%29.87 "Hg10 mi
3:53 AM31 °FClear.14 mph40%29.83 "Hg10 mi
2:53 AM32 °FClear.14 mph27%29.80 "Hg10 mi
1:53 AM34 °FPassing clouds.14 mph38%29.80 "Hg10 mi
12:53 AM35 °FClear.8 mph44%29.76 "Hg10 mi
11:53 PM
Wed, Mar 4
36 °FPassing clouds.7 mph44%29.76 "Hg10 mi
10:53 PM37 °FClear.8 mph52%29.75 "Hg10 mi
9:53 PM35 °FClear.No wind64%29.72 "Hg10 mi
8:53 PM37 °FClear.3 mph54%29.74 "Hg10 mi
7:53 PM38 °FClear.No wind58%29.69 "Hg10 mi
Weather by CustomWeather, © 2015

See weather overviewHow to use our weather pages